Tacoma Narrows, WA
on Monday, January 14, 2013

Monday
Previous Day Next Day
Daily Summary
 ActualAverageRecord
Temperature
Mean Temperature °F °F  
Max Temperature 34°F 43°F 54°F (2011)
Min Temperature 28°F 37°F 21°F (2007)
Degree Days
Heating Degree Days 34    
Moisture
Dew Point 27°F   
Average Humidity 83    
Maximum Humidity 93    
Minimum Humidity 73    
Precipitation
Precipitation 0.00 in in in ()
Wind
Wind Speed 2 mph   
Max Wind Speed 6 mph   
Max Gust Speed mph   
Visibility 10 miles   
Events     
Averages and records for this station are not official NWS values.
Key: T is trace of precipitation, MM is missing value
Source: NWS Daily Summary
Seasonal Weather Averages
Time(PST)TemperatureDew PointHumidity Pressure Visibility Wind DirectionWind SpeedGust SpeedPrecipitationEvents Conditions
12:53 AM 28.9°F 23.0°F 78% 30.49 in 10.0 miles Calm Calm - N/A   Clear
1:53 AM 30.0°F 24.1°F 79% 30.49 in 10.0 miles South 3.5 mph - N/A   Clear
2:53 AM 28.9°F 26.1°F 89% 30.50 in 10.0 miles South 3.5 mph - N/A   Partly Cloudy
3:53 AM 28.4°F 24.8°F 86% 30.49 in 10.0 miles Calm Calm - N/A   Clear
4:53 AM 28.0°F 26.1°F 92% 30.49 in 8.0 miles South 4.6 mph - N/A   Clear
5:38 AM 28.4°F 26.6°F 93% 30.49 in 6.0 miles Calm Calm - N/A   Partly Cloudy
5:53 AM 30.0°F 27.0°F 88% 30.50 in 7.0 miles Calm Calm - N/A   Scattered Clouds
6:53 AM 28.9°F 26.1°F 89% 30.51 in 10.0 miles SSW 4.6 mph - N/A   Overcast
7:53 AM 30.0°F 26.1°F 85% 30.52 in 10.0 miles SSE 3.5 mph - N/A   Mostly Cloudy
8:53 AM 28.9°F 25.0°F 85% 30.53 in 10.0 miles Calm Calm - N/A   Scattered Clouds
9:53 AM 30.9°F 27.0°F 85% 30.53 in 10.0 miles SSW 5.8 mph - N/A   Scattered Clouds
10:53 AM 30.9°F 27.0°F 85% 30.53 in 10.0 miles South 5.8 mph - N/A   Scattered Clouds
10:57 AM 30.2°F 26.6°F 86% 30.51 in 10.0 miles South 5.8 mph - N/A   Scattered Clouds
11:53 AM 33.1°F 26.1°F 75% 30.52 in 10.0 miles South 4.6 mph - N/A   Scattered Clouds
12:53 PM 34.0°F 27.0°F 75% 30.52 in 10.0 miles South 3.5 mph - N/A   Scattered Clouds
1:53 PM 33.8°F 26.6°F 75% 30.50 in 10.0 miles South 3.5 mph - N/A   Partly Cloudy
2:53 PM 34.0°F 26.1°F 73% 30.53 in 10.0 miles SSW 3.5 mph - N/A   Overcast
3:53 PM 33.1°F 28.0°F 82% 30.53 in 10.0 miles South 3.5 mph - N/A   Overcast
4:00 PM 33.8°F 28.4°F 81% 30.52 in 10.0 miles South 3.5 mph - N/A   Mostly Cloudy
4:53 PM 34.0°F 28.9°F 82% 30.53 in 10.0 miles Calm Calm - N/A   Overcast
5:53 PM 33.1°F 28.9°F 85% 30.54 in 10.0 miles Calm Calm - N/A   Overcast
6:53 PM 34.0°F 28.9°F 82% 30.55 in 10.0 miles NW 3.5 mph - N/A   Overcast
7:27 PM 33.8°F 28.4°F 81% 30.54 in 10.0 miles Calm Calm - N/A   Overcast
7:34 PM 33.8°F 28.4°F 81% 30.54 in 10.0 miles Calm Calm - N/A   Overcast
7:53 PM 34.0°F 28.9°F 82% 30.56 in 10.0 miles Calm Calm - N/A   Overcast
8:53 PM 34.0°F 30.0°F 85% 30.57 in 10.0 miles Calm Calm - N/A   Overcast
9:53 PM 34.0°F 30.0°F 85% 30.56 in 10.0 miles Calm Calm - N/A   Overcast
10:53 PM 34.0°F 30.0°F 85% 30.57 in 10.0 miles Calm Calm - N/A   Overcast
11:24 PM 33.8°F 30.2°F 87% 30.57 in 10.0 miles Calm Calm - N/A   Overcast
11:53 PM 34.0°F 30.0°F 85% 30.58 in 10.0 miles Calm Calm - N/A   Overcast
Moon Phase
Jan. 14 Jan. 18 Jan. 26 Feb. 03 Feb. 10
Sunrise:07:52 AM (PST) Moon Rise:09:12 AM (PST)1/14
Sunset:04:46 PM (PST) Moon Set:08:56 PM (PST)1/14

Copyright © 2014 The Weather Underground, Inc.